Wenatchee, WA
on Saturday, November 10, 2012

Saturday
Previous Day Next Day
Daily Summary
 ActualAverageRecord
Temperature
Mean Temperature °F 36°F  
Max Temperature 30°F 44°F 67°F (1989)
Min Temperature 18°F 29°F 15°F (1986)
Degree Days
Heating Degree Days 41 29  
Month to date heating degree days 238 271  
Since 1 July heating degree days 1037 1227  
Cooling Degree Days 0 0  
Month to date cooling degree days 0 0  
Year to date cooling degree days 294 249  
Moisture
Dew Point 23°F   
Average Humidity 64    
Maximum Humidity 75    
Minimum Humidity 46    
Precipitation
Precipitation T in 0.07 in 1.27 in (1983)
Month to date precipitation 0.54 0.63  
Year to date precipitation 17.64 12.97  
Snow
Snow T in 0.10 in in ()
Month to date snowfall 3.2 0.8  
Since 1 July snowfall 3.2 0.9  
Since 1 September snowfall 3.2 0.9  
Snow Depth 2.00 in   
Wind
Wind Speed 5 mph   
Max Wind Speed 9 mph   
Max Gust Speed mph   
Visibility 10 miles   
Events     

Key: T is trace of precipitation, MM is missing value
Source: NWS Daily Summary
Time(PST)TemperatureDew PointHumidity Pressure Visibility Wind DirectionWind SpeedGust SpeedPrecipitationEvents Conditions
12:55 AM 37.0°F 21.9°F 54% 29.94 in 10.0 miles NE 9.2 mph - N/A   Overcast
1:55 AM 37.0°F 25.0°F 62% 29.96 in 10.0 miles East 3.5 mph - N/A   Overcast
2:55 AM 36.0°F 25.0°F 64% 29.97 in 10.0 miles ESE 4.6 mph - N/A   Overcast
3:55 AM 36.0°F 25.0°F 64% 29.98 in 10.0 miles ESE 4.6 mph - N/A   Overcast
4:55 AM 36.0°F 25.0°F 64% 30.00 in 10.0 miles ESE 3.5 mph - 0.00 in   Overcast
5:55 AM 35.1°F 25.0°F 67% 30.01 in 10.0 miles SE 3.5 mph - N/A   Overcast
6:55 AM 33.1°F 25.0°F 72% 30.03 in 10.0 miles ENE 3.5 mph - N/A   Overcast
7:55 AM 34.0°F 23.0°F 64% 30.05 in 10.0 miles East 5.8 mph - N/A   Overcast
8:55 AM 34.0°F 24.1°F 67% 30.07 in 10.0 miles SE 5.8 mph - 0.00 in   Overcast
9:55 AM 34.0°F 27.0°F 75% 30.08 in 10.0 miles SSW 4.6 mph - N/A   Overcast
10:55 AM 36.0°F 24.1°F 62% 30.09 in 10.0 miles SE 5.8 mph - N/A   Overcast
11:55 AM 37.0°F 23.0°F 57% 30.09 in 10.0 miles Variable 4.6 mph - N/A   Overcast
12:55 PM 37.0°F 21.0°F 52% 30.10 in 10.0 miles ESE 5.8 mph - N/A   Overcast
1:55 PM 39.0°F 19.9°F 46% 30.10 in 10.0 miles Variable 3.5 mph - N/A   Scattered Clouds
2:55 PM 39.0°F 21.0°F 49% 30.12 in 10.0 miles SSE 3.5 mph - N/A   Scattered Clouds
3:55 PM 37.0°F 23.0°F 57% 30.14 in 10.0 miles Calm Calm - N/A   Clear
4:55 PM 34.0°F 21.9°F 61% 30.15 in 10.0 miles NE 3.5 mph - N/A   Overcast
5:55 PM 30.9°F 21.9°F 69% 30.17 in 10.0 miles NW 4.6 mph - N/A   Mostly Cloudy
6:55 PM 30.9°F 21.9°F 69% 30.19 in 10.0 miles Calm Calm - N/A   Partly Cloudy
8:55 PM 30.0°F 21.9°F 72% 30.20 in 10.0 miles ENE 4.6 mph - N/A   Overcast
9:55 PM 30.0°F 21.9°F 72% 30.20 in 10.0 miles East 3.5 mph - N/A   Partly Cloudy
10:55 PM 30.0°F 23.0°F 75% 30.21 in 10.0 miles East 3.5 mph - N/A   Scattered Clouds
11:55 PM 28.0°F 21.0°F 75% 30.23 in 10.0 miles NNW 3.5 mph - N/A   Clear
Moon Phase
Nov. 10 Nov. 13 Nov. 20 Nov. 28 Dec. 06
Sunrise:06:58 AM (PST) Moon Rise:02:56 AM (PST)11/10
Sunset:04:30 PM (PST) Moon Set:02:31 PM (PST)11/10

Copyright © 2014 The Weather Underground, Inc.